owner,sensor,date,latitude,longitude,vertical_datum,mass_concentration_of_oxygen_in_sea_water,qcFlag 
NERRS,ioos:station:NOAA.NERRS:wkbfrwq:1,2017-08-01T00:45:00Z,30.4162,-87.8228,2.23,8.2,1111122 
NERRS,ioos:station:NOAA.NERRS:wkbfrwq:1,2017-08-01T01:45:00Z,30.4162,-87.8228,2.26,8.2,1111122 
NERRS,ioos:station:NOAA.NERRS:wkbfrwq:1,2017-08-01T02:45:00Z,30.4162,-87.8228,2.28,7.1,1111122 
NERRS,ioos:station:NOAA.NERRS:wkbfrwq:1,2017-08-01T03:45:00Z,30.4162,-87.8228,2.3,7.5,1111122 
NERRS,ioos:station:NOAA.NERRS:wkbfrwq:1,2017-08-01T04:45:00Z,30.4162,-87.8228,2.32,7.6,1111122 
NERRS,ioos:station:NOAA.NERRS:wkbfrwq:1,2017-08-01T05:45:00Z,30.4162,-87.8228,2.34,7.0,1111122 
NERRS,ioos:station:NOAA.NERRS:wkbfrwq:1,2017-08-01T06:45:00Z,30.4162,-87.8228,2.36,7.1,1111122 
NERRS,ioos:station:NOAA.NERRS:wkbfrwq:1,2017-08-01T07:45:00Z,30.4162,-87.8228,2.38,7.0,1111122 
NERRS,ioos:station:NOAA.NERRS:wkbfrwq:1,2017-08-01T08:45:00Z,30.4162,-87.8228,2.42,8.7,1111122 
NERRS,ioos:station:NOAA.NERRS:wkbfrwq:1,2017-08-01T09:45:00Z,30.4162,-87.8228,2.45,5.9,1111122 
NERRS,ioos:station:NOAA.NERRS:wkbfrwq:1,2017-08-01T10:45:00Z,30.4162,-87.8228,2.48,8.2,1111122 
NERRS,ioos:station:NOAA.NERRS:wkbfrwq:1,2017-08-01T11:45:00Z,30.4162,-87.8228,2.5,7.4,1111122 
NERRS,ioos:station:NOAA.NERRS:wkbfrwq:1,2017-08-01T12:45:00Z,30.4162,-87.8228,2.51,6.6,1111122 
NERRS,ioos:station:NOAA.NERRS:wkbfrwq:1,2017-08-01T13:45:00Z,30.4162,-87.8228,2.51,6.5,1111122 
NERRS,ioos:station:NOAA.NERRS:wkbfrwq:1,2017-08-01T14:45:00Z,30.4162,-87.8228,2.5,7.0,1111122 
NERRS,ioos:station:NOAA.NERRS:wkbfrwq:1,2017-08-01T15:45:00Z,30.4162,-87.8228,2.47,5.2,1111122 
NERRS,ioos:station:NOAA.NERRS:wkbfrwq:1,2017-08-01T16:45:00Z,30.4162,-87.8228,2.42,6.6,1111122 
NERRS,ioos:station:NOAA.NERRS:wkbfrwq:1,2017-08-01T18:45:00Z,30.4162,-87.8228,2.33,6.8,1111122 
NERRS,ioos:station:NOAA.NERRS:wkbfrwq:1,2017-08-01T19:45:00Z,30.4162,-87.8228,2.3,8.7,1111122 
NERRS,ioos:station:NOAA.NERRS:wkbfrwq:1,2017-08-01T21:45:00Z,30.4162,-87.8228,2.2,9.3,1111122 
NERRS,ioos:station:NOAA.NERRS:wkbfrwq:1,2017-08-02T00:45:00Z,30.4162,-87.8228,2.2,6.0,1111122 
NERRS,ioos:station:NOAA.NERRS:wkbfrwq:1,2017-08-02T01:45:00Z,30.4162,-87.8228,2.21,6.2,1111122 
NERRS,ioos:station:NOAA.NERRS:wkbfrwq:1,2017-08-02T02:45:00Z,30.4162,-87.8228,2.23,5.5,1111122 
NERRS,ioos:station:NOAA.NERRS:wkbfrwq:1,2017-08-02T03:45:00Z,30.4162,-87.8228,2.27,5.9,1111122 
NERRS,ioos:station:NOAA.NERRS:wkbfrwq:1,2017-08-02T04:45:00Z,30.4162,-87.8228,2.32,6.0,1111122 
NERRS,ioos:station:NOAA.NERRS:wkbfrwq:1,2017-08-02T05:45:00Z,30.4162,-87.8228,2.35,6.1,1111122 
NERRS,ioos:station:NOAA.NERRS:wkbfrwq:1,2017-08-02T07:45:00Z,30.4162,-87.8228,2.44,9.1,1111122 
NERRS,ioos:station:NOAA.NERRS:wkbfrwq:1,2017-08-02T08:45:00Z,30.4162,-87.8228,2.49,8.9,1111122 
NERRS,ioos:station:NOAA.NERRS:wkbfrwq:1,2017-08-02T09:45:00Z,30.4162,-87.8228,2.52,8.0,1111122 
NERRS,ioos:station:NOAA.NERRS:wkbfrwq:1,2017-08-02T10:45:00Z,30.4162,-87.8228,2.55,8.4,1111122 
NERRS,ioos:station:NOAA.NERRS:wkbfrwq:1,2017-08-02T11:45:00Z,30.4162,-87.8228,2.57,7.5,1111122 
NERRS,ioos:station:NOAA.NERRS:wkbfrwq:1,2017-08-02T12:45:00Z,30.4162,-87.8228,2.57,6.8,1111122 
NERRS,ioos:station:NOAA.NERRS:wkbfrwq:1,2017-08-02T14:45:00Z,30.4162,-87.8228,2.5,6.3,1111122 
NERRS,ioos:station:NOAA.NERRS:wkbfrwq:1,2017-08-02T16:45:00Z,30.4162,-87.8228,2.46,6.0,1111122 
NERRS,ioos:station:NOAA.NERRS:wkbfrwq:1,2017-08-02T17:45:00Z,30.4162,-87.8228,2.41,6.8,1111122 
NERRS,ioos:station:NOAA.NERRS:wkbfrwq:1,2017-08-02T18:45:00Z,30.4162,-87.8228,2.36,7.7,1111122 
NERRS,ioos:station:NOAA.NERRS:wkbfrwq:1,2017-08-02T19:45:00Z,30.4162,-87.8228,2.31,6.3,1111122 
NERRS,ioos:station:NOAA.NERRS:wkbfrwq:1,2017-08-02T23:45:00Z,30.4162,-87.8228,2.16,4.9,1111122 
NERRS,ioos:station:NOAA.NERRS:wkbfrwq:1,2017-08-03T04:45:00Z,30.4162,-87.8228,2.35,8.0,1111122 
NERRS,ioos:station:NOAA.NERRS:wkbfrwq:1,2017-08-03T06:45:00Z,30.4162,-87.8228,2.44,8.8,1111122 
NERRS,ioos:station:NOAA.NERRS:wkbfrwq:1,2017-08-03T08:45:00Z,30.4162,-87.8228,2.48,7.7,1111122 
NERRS,ioos:station:NOAA.NERRS:wkbfrwq:1,2017-08-03T09:45:00Z,30.4162,-87.8228,2.5,7.8,1111122 
NERRS,ioos:station:NOAA.NERRS:wkbfrwq:1,2017-08-03T10:45:00Z,30.4162,-87.8228,2.53,7.4,1111122 
NERRS,ioos:station:NOAA.NERRS:wkbfrwq:1,2017-08-03T11:45:00Z,30.4162,-87.8228,2.55,6.9,1111122 
NERRS,ioos:station:NOAA.NERRS:wkbfrwq:1,2017-08-03T12:45:00Z,30.4162,-87.8228,2.53,6.0,1111122 
NERRS,ioos:station:NOAA.NERRS:wkbfrwq:1,2017-08-03T13:45:00Z,30.4162,-87.8228,2.55,5.6,1111122 
NERRS,ioos:station:NOAA.NERRS:wkbfrwq:1,2017-08-03T14:45:00Z,30.4162,-87.8228,2.55,5.4,1111122 
NERRS,ioos:station:NOAA.NERRS:wkbfrwq:1,2017-08-03T16:45:00Z,30.4162,-87.8228,2.5,5.8,1111122 
NERRS,ioos:station:NOAA.NERRS:wkbfrwq:1,2017-08-03T17:45:00Z,30.4162,-87.8228,2.46,3.1,1111122 
NERRS,ioos:station:NOAA.NERRS:wkbfrwq:1,2017-08-03T20:45:00Z,30.4162,-87.8228,2.29,5.8,1111122 
NERRS,ioos:station:NOAA.NERRS:wkbfrwq:1,2017-08-03T23:45:00Z,30.4162,-87.8228,2.17,4.0,1111122 
NERRS,ioos:station:NOAA.NERRS:wkbfrwq:1,2017-08-04T08:45:00Z,30.4162,-87.8228,2.53,7.7,1111122 
NERRS,ioos:station:NOAA.NERRS:wkbfrwq:1,2017-08-04T10:45:00Z,30.4162,-87.8228,2.68,7.4,1111122 
NERRS,ioos:station:NOAA.NERRS:wkbfrwq:1,2017-08-04T12:45:00Z,30.4162,-87.8228,2.63,6.6,1111122 
NERRS,ioos:station:NOAA.NERRS:wkbfrwq:1,2017-08-04T20:45:00Z,30.4162,-87.8228,2.32,6.9,1111122 
NERRS,ioos:station:NOAA.NERRS:wkbfrwq:1,2017-08-04T21:45:00Z,30.4162,-87.8228,2.37,6.9,1111122 
NERRS,ioos:station:NOAA.NERRS:wkbfrwq:1,2017-08-05T04:45:00Z,30.4162,-87.8228,2.24,6.6,1111122 
NERRS,ioos:station:NOAA.NERRS:wkbfrwq:1,2017-08-05T05:45:00Z,30.4162,-87.8228,2.32,6.5,1111122 
NERRS,ioos:station:NOAA.NERRS:wkbfrwq:1,2017-08-05T06:45:00Z,30.4162,-87.8228,2.4,5.9,1111122 
NERRS,ioos:station:NOAA.NERRS:wkbfrwq:1,2017-08-05T07:45:00Z,30.4162,-87.8228,2.38,6.5,1111122 
NERRS,ioos:station:NOAA.NERRS:wkbfrwq:1,2017-08-05T08:45:00Z,30.4162,-87.8228,2.39,6.4,1111122 
NERRS,ioos:station:NOAA.NERRS:wkbfrwq:1,2017-08-05T10:45:00Z,30.4162,-87.8228,2.49,6.0,1111122 
NERRS,ioos:station:NOAA.NERRS:wkbfrwq:1,2017-08-05T11:45:00Z,30.4162,-87.8228,2.53,6.3,1111122 
NERRS,ioos:station:NOAA.NERRS:wkbfrwq:1,2017-08-05T12:45:00Z,30.4162,-87.8228,2.58,6.1,1111122 
NERRS,ioos:station:NOAA.NERRS:wkbfrwq:1,2017-08-05T13:45:00Z,30.4162,-87.8228,2.62,6.0,1111122 
NERRS,ioos:station:NOAA.NERRS:wkbfrwq:1,2017-08-05T15:45:00Z,30.4162,-87.8228,2.66,5.9,1111122 
NERRS,ioos:station:NOAA.NERRS:wkbfrwq:1,2017-08-05T16:45:00Z,30.4162,-87.8228,2.63,6.0,1111122 
NERRS,ioos:station:NOAA.NERRS:wkbfrwq:1,2017-08-05T17:45:00Z,30.4162,-87.8228,2.58,5.9,1111122 
NERRS,ioos:station:NOAA.NERRS:wkbfrwq:1,2017-08-05T18:45:00Z,30.4162,-87.8228,2.52,5.9,1111122 
NERRS,ioos:station:NOAA.NERRS:wkbfrwq:1,2017-08-05T19:45:00Z,30.4162,-87.8228,2.45,5.9,1111122 
NERRS,ioos:station:NOAA.NERRS:wkbfrwq:1,2017-08-05T20:45:00Z,30.4162,-87.8228,2.36,5.9,1111122 
NERRS,ioos:station:NOAA.NERRS:wkbfrwq:1,2017-08-05T21:45:00Z,30.4162,-87.8228,2.28,5.9,1111122 
NERRS,ioos:station:NOAA.NERRS:wkbfrwq:1,2017-08-06T02:45:00Z,30.4162,-87.8228,2.11,5.5,1111122 
NERRS,ioos:station:NOAA.NERRS:wkbfrwq:1,2017-08-06T03:45:00Z,30.4162,-87.8228,2.12,5.7,1111122 
NERRS,ioos:station:NOAA.NERRS:wkbfrwq:1,2017-08-06T04:45:00Z,30.4162,-87.8228,2.16,5.5,1111122 
NERRS,ioos:station:NOAA.NERRS:wkbfrwq:1,2017-08-06T05:45:00Z,30.4162,-87.8228,2.21,5.5,1111122 
NERRS,ioos:station:NOAA.NERRS:wkbfrwq:1,2017-08-06T08:45:00Z,30.4162,-87.8228,2.39,5.5,1111122 
NERRS,ioos:station:NOAA.NERRS:wkbfrwq:1,2017-08-06T09:45:00Z,30.4162,-87.8228,2.43,5.4,1111122 
NERRS,ioos:station:NOAA.NERRS:wkbfrwq:1,2017-08-06T10:45:00Z,30.4162,-87.8228,2.49,5.3,1111122 
NERRS,ioos:station:NOAA.NERRS:wkbfrwq:1,2017-08-06T11:45:00Z,30.4162,-87.8228,2.54,5.4,1111122 
NERRS,ioos:station:NOAA.NERRS:wkbfrwq:1,2017-08-06T12:45:00Z,30.4162,-87.8228,2.61,5.3,1111122 
NERRS,ioos:station:NOAA.NERRS:wkbfrwq:1,2017-08-06T13:45:00Z,30.4162,-87.8228,2.66,5.2,1111122 
NERRS,ioos:station:NOAA.NERRS:wkbfrwq:1,2017-08-06T14:45:00Z,30.4162,-87.8228,2.68,4.3,1111122 
NERRS,ioos:station:NOAA.NERRS:wkbfrwq:1,2017-08-06T15:45:00Z,30.4162,-87.8228,2.68,4.7,1111122 
NERRS,ioos:station:NOAA.NERRS:wkbfrwq:1,2017-08-06T16:45:00Z,30.4162,-87.8228,2.65,5.0,1111122 
NERRS,ioos:station:NOAA.NERRS:wkbfrwq:1,2017-08-06T17:45:00Z,30.4162,-87.8228,2.62,5.0,1111122 
NERRS,ioos:station:NOAA.NERRS:wkbfrwq:1,2017-08-06T18:45:00Z,30.4162,-87.8228,2.57,5.1,1111122 
NERRS,ioos:station:NOAA.NERRS:wkbfrwq:1,2017-08-06T19:45:00Z,30.4162,-87.8228,2.5,5.1,1111122 
NERRS,ioos:station:NOAA.NERRS:wkbfrwq:1,2017-08-06T20:45:00Z,30.4162,-87.8228,2.42,5.2,1111122 
NERRS,ioos:station:NOAA.NERRS:wkbfrwq:1,2017-08-06T21:45:00Z,30.4162,-87.8228,2.34,5.3,1111122 
NERRS,ioos:station:NOAA.NERRS:wkbfrwq:1,2017-08-06T22:45:00Z,30.4162,-87.8228,2.27,5.4,1111122 
NERRS,ioos:station:NOAA.NERRS:wkbfrwq:1,2017-08-06T23:45:00Z,30.4162,-87.8228,2.23,5.4,1111122 
NERRS,ioos:station:NOAA.NERRS:wkbfrwq:1,2017-08-07T00:45:00Z,30.4162,-87.8228,2.19,5.3,1111122 
NERRS,ioos:station:NOAA.NERRS:wkbfrwq:1,2017-08-07T01:45:00Z,30.4162,-87.8228,2.16,5.6,1111122 
NERRS,ioos:station:NOAA.NERRS:wkbfrwq:1,2017-08-07T02:45:00Z,30.4162,-87.8228,2.18,5.3,1111122 
NERRS,ioos:station:NOAA.NERRS:wkbfrwq:1,2017-08-07T03:45:00Z,30.4162,-87.8228,2.2,5.3,1111122 
NERRS,ioos:station:NOAA.NERRS:wkbfrwq:1,2017-08-07T04:45:00Z,30.4162,-87.8228,2.23,5.1,1111122 
NERRS,ioos:station:NOAA.NERRS:wkbfrwq:1,2017-08-07T05:45:00Z,30.4162,-87.8228,2.27,5.2,1111122 
NERRS,ioos:station:NOAA.NERRS:wkbfrwq:1,2017-08-07T06:45:00Z,30.4162,-87.8228,2.32,5.2,1111122 
NERRS,ioos:station:NOAA.NERRS:wkbfrwq:1,2017-08-07T07:45:00Z,30.4162,-87.8228,2.38,5.3,1111122 
NERRS,ioos:station:NOAA.NERRS:wkbfrwq:1,2017-08-07T08:45:00Z,30.4162,-87.8228,2.46,5.9,1111122 
NERRS,ioos:station:NOAA.NERRS:wkbfrwq:1,2017-08-07T09:45:00Z,30.4162,-87.8228,2.51,5.9,1111122 
NERRS,ioos:station:NOAA.NERRS:wkbfrwq:1,2017-08-07T10:45:00Z,30.4162,-87.8228,2.53,4.9,1111122 
NERRS,ioos:station:NOAA.NERRS:wkbfrwq:1,2017-08-07T11:45:00Z,30.4162,-87.8228,2.54,4.5,1111122 
NERRS,ioos:station:NOAA.NERRS:wkbfrwq:1,2017-08-07T12:45:00Z,30.4162,-87.8228,2.59,5.2,1111122 
NERRS,ioos:station:NOAA.NERRS:wkbfrwq:1,2017-08-07T13:45:00Z,30.4162,-87.8228,2.66,6.5,1111122 
NERRS,ioos:station:NOAA.NERRS:wkbfrwq:1,2017-08-07T14:45:00Z,30.4162,-87.8228,2.7,6.3,1111122 
NERRS,ioos:station:NOAA.NERRS:wkbfrwq:1,2017-08-07T15:45:00Z,30.4162,-87.8228,2.73,6.8,1111122 
NERRS,ioos:station:NOAA.NERRS:wkbfrwq:1,2017-08-07T16:45:00Z,30.4162,-87.8228,2.72,6.8,1111122 
NERRS,ioos:station:NOAA.NERRS:wkbfrwq:1,2017-08-07T17:45:00Z,30.4162,-87.8228,2.69,6.2,1111122 
NERRS,ioos:station:NOAA.NERRS:wkbfrwq:1,2017-08-07T18:45:00Z,30.4162,-87.8228,2.63,5.2,1111122 
NERRS,ioos:station:NOAA.NERRS:wkbfrwq:1,2017-08-07T19:45:00Z,30.4162,-87.8228,2.56,5.0,1111122 
NERRS,ioos:station:NOAA.NERRS:wkbfrwq:1,2017-08-07T20:45:00Z,30.4162,-87.8228,2.48,4.8,1111122 
NERRS,ioos:station:NOAA.NERRS:wkbfrwq:1,2017-08-07T21:45:00Z,30.4162,-87.8228,2.4,4.7,1111122 
NERRS,ioos:station:NOAA.NERRS:wkbfrwq:1,2017-08-07T22:45:00Z,30.4162,-87.8228,2.34,4.7,1111122 
NERRS,ioos:station:NOAA.NERRS:wkbfrwq:1,2017-08-07T23:45:00Z,30.4162,-87.8228,2.31,4.7,1111122 
NERRS,ioos:station:NOAA.NERRS:wkbfrwq:1,2017-08-08T00:45:00Z,30.4162,-87.8228,2.26,4.9,1111122 
NERRS,ioos:station:NOAA.NERRS:wkbfrwq:1,2017-08-08T01:45:00Z,30.4162,-87.8228,2.22,4.9,1111122 
NERRS,ioos:station:NOAA.NERRS:wkbfrwq:1,2017-08-08T02:45:00Z,30.4162,-87.8228,2.19,4.5,1111122 
NERRS,ioos:station:NOAA.NERRS:wkbfrwq:1,2017-08-08T03:45:00Z,30.4162,-87.8228,2.18,4.8,1111122 
NERRS,ioos:station:NOAA.NERRS:wkbfrwq:1,2017-08-08T04:45:00Z,30.4162,-87.8228,2.17,4.5,1111122 
NERRS,ioos:station:NOAA.NERRS:wkbfrwq:1,2017-08-08T05:45:00Z,30.4162,-87.8228,2.17,4.5,1111122 
NERRS,ioos:station:NOAA.NERRS:wkbfrwq:1,2017-08-08T06:45:00Z,30.4162,-87.8228,2.2,4.6,1111122 
NERRS,ioos:station:NOAA.NERRS:wkbfrwq:1,2017-08-08T07:45:00Z,30.4162,-87.8228,2.18,4.5,1111122 
NERRS,ioos:station:NOAA.NERRS:wkbfrwq:1,2017-08-08T08:45:00Z,30.4162,-87.8228,2.2,4.6,1111122 
NERRS,ioos:station:NOAA.NERRS:wkbfrwq:1,2017-08-08T09:45:00Z,30.4162,-87.8228,2.32,4.7,1111122 
NERRS,ioos:station:NOAA.NERRS:wkbfrwq:1,2017-08-08T10:45:00Z,30.4162,-87.8228,2.44,5.0,1111122 
NERRS,ioos:station:NOAA.NERRS:wkbfrwq:1,2017-08-08T11:45:00Z,30.4162,-87.8228,2.48,5.3,1111122 
NERRS,ioos:station:NOAA.NERRS:wkbfrwq:1,2017-08-08T12:45:00Z,30.4162,-87.8228,2.5,4.9,1111122 
NERRS,ioos:station:NOAA.NERRS:wkbfrwq:1,2017-08-08T13:45:00Z,30.4162,-87.8228,2.57,5.9,1111122 
NERRS,ioos:station:NOAA.NERRS:wkbfrwq:1,2017-08-08T14:45:00Z,30.4162,-87.8228,2.66,6.5,1111122 
NERRS,ioos:station:NOAA.NERRS:wkbfrwq:1,2017-08-08T15:45:00Z,30.4162,-87.8228,2.72,6.6,1111122 
NERRS,ioos:station:NOAA.NERRS:wkbfrwq:1,2017-08-08T16:45:00Z,30.4162,-87.8228,2.7,6.4,1111122 
NERRS,ioos:station:NOAA.NERRS:wkbfrwq:1,2017-08-08T17:45:00Z,30.4162,-87.8228,2.66,6.4,1111122 
NERRS,ioos:station:NOAA.NERRS:wkbfrwq:1,2017-08-08T18:45:00Z,30.4162,-87.8228,2.65,6.2,1111122 
NERRS,ioos:station:NOAA.NERRS:wkbfrwq:1,2017-08-08T19:45:00Z,30.4162,-87.8228,2.6,6.0,1111122 
NERRS,ioos:station:NOAA.NERRS:wkbfrwq:1,2017-08-08T20:45:00Z,30.4162,-87.8228,2.52,4.8,1111122 
NERRS,ioos:station:NOAA.NERRS:wkbfrwq:1,2017-08-08T21:45:00Z,30.4162,-87.8228,2.43,4.6,1111122 
NERRS,ioos:station:NOAA.NERRS:wkbfrwq:1,2017-08-08T22:45:00Z,30.4162,-87.8228,2.35,5.2,1111122 
NERRS,ioos:station:NOAA.NERRS:wkbfrwq:1,2017-08-08T23:45:00Z,30.4162,-87.8228,2.3,4.4,1111122 
NERRS,ioos:station:NOAA.NERRS:wkbfrwq:1,2017-08-09T00:45:00Z,30.4162,-87.8228,2.27,5.1,1111122 
NERRS,ioos:station:NOAA.NERRS:wkbfrwq:1,2017-08-09T01:45:00Z,30.4162,-87.8228,2.23,4.8,1111122 
NERRS,ioos:station:NOAA.NERRS:wkbfrwq:1,2017-08-09T02:45:00Z,30.4162,-87.8228,2.2,4.8,1111122 
NERRS,ioos:station:NOAA.NERRS:wkbfrwq:1,2017-08-09T03:45:00Z,30.4162,-87.8228,2.17,4.4,1111122 
NERRS,ioos:station:NOAA.NERRS:wkbfrwq:1,2017-08-09T04:45:00Z,30.4162,-87.8228,2.19,4.6,1111122 
NERRS,ioos:station:NOAA.NERRS:wkbfrwq:1,2017-08-09T05:45:00Z,30.4162,-87.8228,2.21,4.4,1111122 
NERRS,ioos:station:NOAA.NERRS:wkbfrwq:1,2017-08-09T06:45:00Z,30.4162,-87.8228,2.25,4.4,1111122 
NERRS,ioos:station:NOAA.NERRS:wkbfrwq:1,2017-08-09T07:45:00Z,30.4162,-87.8228,2.31,5.7,1111122 
NERRS,ioos:station:NOAA.NERRS:wkbfrwq:1,2017-08-09T08:45:00Z,30.4162,-87.8228,2.36,5.4,1111122 
NERRS,ioos:station:NOAA.NERRS:wkbfrwq:1,2017-08-09T09:45:00Z,30.4162,-87.8228,2.4,6.1,1111122 
NERRS,ioos:station:NOAA.NERRS:wkbfrwq:1,2017-08-09T10:45:00Z,30.4162,-87.8228,2.43,6.4,1111122 
NERRS,ioos:station:NOAA.NERRS:wkbfrwq:1,2017-08-09T11:45:00Z,30.4162,-87.8228,2.46,5.8,1111122 
NERRS,ioos:station:NOAA.NERRS:wkbfrwq:1,2017-08-09T12:45:00Z,30.4162,-87.8228,2.51,5.2,1111122 
NERRS,ioos:station:NOAA.NERRS:wkbfrwq:1,2017-08-09T13:45:00Z,30.4162,-87.8228,2.55,5.7,1111122 
NERRS,ioos:station:NOAA.NERRS:wkbfrwq:1,2017-08-09T14:45:00Z,30.4162,-87.8228,2.6,6.0,1111122 
NERRS,ioos:station:NOAA.NERRS:wkbfrwq:1,2017-08-09T15:45:00Z,30.4162,-87.8228,2.64,6.0,1111122 
NERRS,ioos:station:NOAA.NERRS:wkbfrwq:1,2017-08-09T22:45:00Z,30.4162,-87.8228,2.43,4.7,1111122 
NERRS,ioos:station:NOAA.NERRS:wkbfrwq:1,2017-08-09T23:45:00Z,30.4162,-87.8228,2.37,4.8,1111122 
NERRS,ioos:station:NOAA.NERRS:wkbfrwq:1,2017-08-10T00:45:00Z,30.4162,-87.8228,2.34,4.5,1111122 
NERRS,ioos:station:NOAA.NERRS:wkbfrwq:1,2017-08-10T01:45:00Z,30.4162,-87.8228,2.29,4.4,1111122 
NERRS,ioos:station:NOAA.NERRS:wkbfrwq:1,2017-08-10T02:45:00Z,30.4162,-87.8228,2.29,4.1,1111122 
NERRS,ioos:station:NOAA.NERRS:wkbfrwq:1,2017-08-10T03:45:00Z,30.4162,-87.8228,2.28,4.3,1111122 
NERRS,ioos:station:NOAA.NERRS:wkbfrwq:1,2017-08-10T04:45:00Z,30.4162,-87.8228,2.28,3.9,1111122 
NERRS,ioos:station:NOAA.NERRS:wkbfrwq:1,2017-08-10T05:45:00Z,30.4162,-87.8228,2.29,4.7,1111122 
NERRS,ioos:station:NOAA.NERRS:wkbfrwq:1,2017-08-10T06:45:00Z,30.4162,-87.8228,2.31,6.4,1111122 
NERRS,ioos:station:NOAA.NERRS:wkbfrwq:1,2017-08-10T07:45:00Z,30.4162,-87.8228,2.37,6.7,1111122 
NERRS,ioos:station:NOAA.NERRS:wkbfrwq:1,2017-08-10T08:45:00Z,30.4162,-87.8228,2.4,6.9,1111122 
NERRS,ioos:station:NOAA.NERRS:wkbfrwq:1,2017-08-10T09:45:00Z,30.4162,-87.8228,2.39,6.5,1111122 
NERRS,ioos:station:NOAA.NERRS:wkbfrwq:1,2017-08-10T10:45:00Z,30.4162,-87.8228,2.39,5.7,1111122 
NERRS,ioos:station:NOAA.NERRS:wkbfrwq:1,2017-08-10T11:45:00Z,30.4162,-87.8228,2.42,6.3,1111122 
NERRS,ioos:station:NOAA.NERRS:wkbfrwq:1,2017-08-10T12:45:00Z,30.4162,-87.8228,2.44,6.1,1111122 
NERRS,ioos:station:NOAA.NERRS:wkbfrwq:1,2017-08-10T13:45:00Z,30.4162,-87.8228,2.48,6.6,1111122 
NERRS,ioos:station:NOAA.NERRS:wkbfrwq:1,2017-08-10T14:45:00Z,30.4162,-87.8228,2.5,6.6,1111122 
NERRS,ioos:station:NOAA.NERRS:wkbfrwq:1,2017-08-10T15:45:00Z,30.4162,-87.8228,2.55,5.9,1111122 
NERRS,ioos:station:NOAA.NERRS:wkbfrwq:1,2017-08-10T16:45:00Z,30.4162,-87.8228,2.6,6.7,1111122 
NERRS,ioos:station:NOAA.NERRS:wkbfrwq:1,2017-08-10T17:45:00Z,30.4162,-87.8228,2.6,6.8,1111122 
NERRS,ioos:station:NOAA.NERRS:wkbfrwq:1,2017-08-10T18:45:00Z,30.4162,-87.8228,2.59,5.6,1111122 
NERRS,ioos:station:NOAA.NERRS:wkbfrwq:1,2017-08-10T19:45:00Z,30.4162,-87.8228,2.58,5.3,1111122 
NERRS,ioos:station:NOAA.NERRS:wkbfrwq:1,2017-08-10T20:45:00Z,30.4162,-87.8228,2.57,5.5,1111122 
NERRS,ioos:station:NOAA.NERRS:wkbfrwq:1,2017-08-10T21:45:00Z,30.4162,-87.8228,2.55,5.5,1111122 
NERRS,ioos:station:NOAA.NERRS:wkbfrwq:1,2017-08-10T22:45:00Z,30.4162,-87.8228,2.52,5.7,1111122 
NERRS,ioos:station:NOAA.NERRS:wkbfrwq:1,2017-08-10T23:45:00Z,30.4162,-87.8228,2.43,4.8,1111122 
NERRS,ioos:station:NOAA.NERRS:wkbfrwq:1,2017-08-11T00:45:00Z,30.4162,-87.8228,2.36,4.7,1111122 
NERRS,ioos:station:NOAA.NERRS:wkbfrwq:1,2017-08-11T02:45:00Z,30.4162,-87.8228,2.33,4.9,1111122 
NERRS,ioos:station:NOAA.NERRS:wkbfrwq:1,2017-08-11T03:45:00Z,30.4162,-87.8228,2.19,4.8,1111122 
NERRS,ioos:station:NOAA.NERRS:wkbfrwq:1,2017-08-11T04:45:00Z,30.4162,-87.8228,2.18,4.9,1111122 
NERRS,ioos:station:NOAA.NERRS:wkbfrwq:1,2017-08-11T05:45:00Z,30.4162,-87.8228,2.25,4.5,1111122 
NERRS,ioos:station:NOAA.NERRS:wkbfrwq:1,2017-08-11T06:45:00Z,30.4162,-87.8228,2.33,4.8,1111122 
NERRS,ioos:station:NOAA.NERRS:wkbfrwq:1,2017-08-11T07:45:00Z,30.4162,-87.8228,2.32,5.1,1111122 
NERRS,ioos:station:NOAA.NERRS:wkbfrwq:1,2017-08-11T08:45:00Z,30.4162,-87.8228,2.32,4.7,1111122 
NERRS,ioos:station:NOAA.NERRS:wkbfrwq:1,2017-08-11T09:45:00Z,30.4162,-87.8228,2.35,4.0,1111122 
NERRS,ioos:station:NOAA.NERRS:wkbfrwq:1,2017-08-11T10:45:00Z,30.4162,-87.8228,2.41,4.4,1111122 
NERRS,ioos:station:NOAA.NERRS:wkbfrwq:1,2017-08-11T11:45:00Z,30.4162,-87.8228,2.43,4.8,1111122 
NERRS,ioos:station:NOAA.NERRS:wkbfrwq:1,2017-08-11T12:45:00Z,30.4162,-87.8228,2.43,4.4,1111122 
NERRS,ioos:station:NOAA.NERRS:wkbfrwq:1,2017-08-11T13:45:00Z,30.4162,-87.8228,2.39,4.1,1111122 
NERRS,ioos:station:NOAA.NERRS:wkbfrwq:1,2017-08-11T14:45:00Z,30.4162,-87.8228,2.41,4.0,1111122 
NERRS,ioos:station:NOAA.NERRS:wkbfrwq:1,2017-08-11T15:45:00Z,30.4162,-87.8228,2.49,4.3,1111122 
NERRS,ioos:station:NOAA.NERRS:wkbfrwq:1,2017-08-11T16:45:00Z,30.4162,-87.8228,2.53,5.0,1111122 
NERRS,ioos:station:NOAA.NERRS:wkbfrwq:1,2017-08-11T17:45:00Z,30.4162,-87.8228,2.51,4.9,1111122 
NERRS,ioos:station:NOAA.NERRS:wkbfrwq:1,2017-08-11T18:45:00Z,30.4162,-87.8228,2.52,4.3,1111122 
NERRS,ioos:station:NOAA.NERRS:wkbfrwq:1,2017-08-11T19:45:00Z,30.4162,-87.8228,2.54,4.7,1111122 
NERRS,ioos:station:NOAA.NERRS:wkbfrwq:1,2017-08-11T20:45:00Z,30.4162,-87.8228,2.55,4.5,1111122 
NERRS,ioos:station:NOAA.NERRS:wkbfrwq:1,2017-08-11T21:45:00Z,30.4162,-87.8228,2.51,5.0,1111122 
NERRS,ioos:station:NOAA.NERRS:wkbfrwq:1,2017-08-11T22:45:00Z,30.4162,-87.8228,2.45,4.6,1111122 
NERRS,ioos:station:NOAA.NERRS:wkbfrwq:1,2017-08-11T23:45:00Z,30.4162,-87.8228,2.42,4.1,1111122 
NERRS,ioos:station:NOAA.NERRS:wkbfrwq:1,2017-08-12T00:45:00Z,30.4162,-87.8228,2.4,4.6,1111122 
NERRS,ioos:station:NOAA.NERRS:wkbfrwq:1,2017-08-12T01:45:00Z,30.4162,-87.8228,2.32,4.9,1111122 
NERRS,ioos:station:NOAA.NERRS:wkbfrwq:1,2017-08-12T02:45:00Z,30.4162,-87.8228,2.26,5.7,1111122 
NERRS,ioos:station:NOAA.NERRS:wkbfrwq:1,2017-08-12T03:45:00Z,30.4162,-87.8228,2.24,5.3,1111122 
NERRS,ioos:station:NOAA.NERRS:wkbfrwq:1,2017-08-12T04:45:00Z,30.4162,-87.8228,2.26,4.0,1111122 
NERRS,ioos:station:NOAA.NERRS:wkbfrwq:1,2017-08-12T05:45:00Z,30.4162,-87.8228,2.31,5.4,1111122 
NERRS,ioos:station:NOAA.NERRS:wkbfrwq:1,2017-08-12T06:45:00Z,30.4162,-87.8228,2.32,6.0,1111122 
NERRS,ioos:station:NOAA.NERRS:wkbfrwq:1,2017-08-12T07:45:00Z,30.4162,-87.8228,2.34,5.9,1111122 
NERRS,ioos:station:NOAA.NERRS:wkbfrwq:1,2017-08-12T08:45:00Z,30.4162,-87.8228,2.34,6.1,1111122 
NERRS,ioos:station:NOAA.NERRS:wkbfrwq:1,2017-08-12T09:45:00Z,30.4162,-87.8228,2.34,5.4,1111122 
NERRS,ioos:station:NOAA.NERRS:wkbfrwq:1,2017-08-12T10:45:00Z,30.4162,-87.8228,2.36,5.7,1111122 
NERRS,ioos:station:NOAA.NERRS:wkbfrwq:1,2017-08-12T11:45:00Z,30.4162,-87.8228,0.0,5.1,1111122 
NERRS,ioos:station:NOAA.NERRS:wkbfrwq:1,2017-08-12T12:45:00Z,30.4162,-87.8228,2.31,5.1,1111122 
NERRS,ioos:station:NOAA.NERRS:wkbfrwq:1,2017-08-12T13:45:00Z,30.4162,-87.8228,2.29,4.2,1111122 
NERRS,ioos:station:NOAA.NERRS:wkbfrwq:1,2017-08-12T14:45:00Z,30.4162,-87.8228,2.27,2.9,1111122 
NERRS,ioos:station:NOAA.NERRS:wkbfrwq:1,2017-08-12T15:45:00Z,30.4162,-87.8228,2.29,3.6,1111122 
NERRS,ioos:station:NOAA.NERRS:wkbfrwq:1,2017-08-12T16:45:00Z,30.4162,-87.8228,2.28,4.4,1111122 
NERRS,ioos:station:NOAA.NERRS:wkbfrwq:1,2017-08-12T17:45:00Z,30.4162,-87.8228,2.27,4.3,1111122 
NERRS,ioos:station:NOAA.NERRS:wkbfrwq:1,2017-08-12T18:45:00Z,30.4162,-87.8228,2.32,5.6,1111122 
NERRS,ioos:station:NOAA.NERRS:wkbfrwq:1,2017-08-12T19:45:00Z,30.4162,-87.8228,2.37,7.0,1111122 
NERRS,ioos:station:NOAA.NERRS:wkbfrwq:1,2017-08-12T20:45:00Z,30.4162,-87.8228,2.4,6.9,1111122 
NERRS,ioos:station:NOAA.NERRS:wkbfrwq:1,2017-08-12T21:45:00Z,30.4162,-87.8228,2.43,7.5,1111122 
NERRS,ioos:station:NOAA.NERRS:wkbfrwq:1,2017-08-12T22:45:00Z,30.4162,-87.8228,2.42,8.6,1111122 
NERRS,ioos:station:NOAA.NERRS:wkbfrwq:1,2017-08-12T23:45:00Z,30.4162,-87.8228,2.38,7.0,1111122 
NERRS,ioos:station:NOAA.NERRS:wkbfrwq:1,2017-08-13T00:45:00Z,30.4162,-87.8228,2.32,6.6,1111122 
NERRS,ioos:station:NOAA.NERRS:wkbfrwq:1,2017-08-13T01:45:00Z,30.4162,-87.8228,2.3,5.7,1111122 
NERRS,ioos:station:NOAA.NERRS:wkbfrwq:1,2017-08-13T02:45:00Z,30.4162,-87.8228,2.35,5.8,1111122 
NERRS,ioos:station:NOAA.NERRS:wkbfrwq:1,2017-08-13T03:45:00Z,30.4162,-87.8228,2.28,6.1,1111122 
NERRS,ioos:station:NOAA.NERRS:wkbfrwq:1,2017-08-13T04:45:00Z,30.4162,-87.8228,2.22,4.7,1111122 
NERRS,ioos:station:NOAA.NERRS:wkbfrwq:1,2017-08-13T05:45:00Z,30.4162,-87.8228,2.26,5.5,1111122 
NERRS,ioos:station:NOAA.NERRS:wkbfrwq:1,2017-08-13T06:45:00Z,30.4162,-87.8228,2.31,6.2,1111122 
NERRS,ioos:station:NOAA.NERRS:wkbfrwq:1,2017-08-13T07:45:00Z,30.4162,-87.8228,2.32,6.0,1111122 
NERRS,ioos:station:NOAA.NERRS:wkbfrwq:1,2017-08-13T08:45:00Z,30.4162,-87.8228,2.31,6.2,1111122 
NERRS,ioos:station:NOAA.NERRS:wkbfrwq:1,2017-08-13T09:45:00Z,30.4162,-87.8228,2.34,6.1,1111122 
NERRS,ioos:station:NOAA.NERRS:wkbfrwq:1,2017-08-13T10:45:00Z,30.4162,-87.8228,2.39,6.2,1111122 
NERRS,ioos:station:NOAA.NERRS:wkbfrwq:1,2017-08-13T11:45:00Z,30.4162,-87.8228,2.37,5.6,1111122 
NERRS,ioos:station:NOAA.NERRS:wkbfrwq:1,2017-08-13T12:45:00Z,30.4162,-87.8228,2.32,5.5,1111122 
NERRS,ioos:station:NOAA.NERRS:wkbfrwq:1,2017-08-13T13:45:00Z,30.4162,-87.8228,2.27,5.1,1111122 
NERRS,ioos:station:NOAA.NERRS:wkbfrwq:1,2017-08-13T14:45:00Z,30.4162,-87.8228,2.23,5.4,1111122 
NERRS,ioos:station:NOAA.NERRS:wkbfrwq:1,2017-08-13T15:45:00Z,30.4162,-87.8228,2.22,4.9,1111122 
NERRS,ioos:station:NOAA.NERRS:wkbfrwq:1,2017-08-13T16:45:00Z,30.4162,-87.8228,2.22,4.6,1111122 
NERRS,ioos:station:NOAA.NERRS:wkbfrwq:1,2017-08-13T17:45:00Z,30.4162,-87.8228,2.22,5.6,1111122 
NERRS,ioos:station:NOAA.NERRS:wkbfrwq:1,2017-08-13T18:45:00Z,30.4162,-87.8228,2.21,5.9,1111122 
NERRS,ioos:station:NOAA.NERRS:wkbfrwq:1,2017-08-13T19:45:00Z,30.4162,-87.8228,2.21,5.2,1111122 